This demonstration page uses our WeatherBlox Daily Observations layout. Learn more.

Left ArrowRight Arrow

47.50024, -111.30081

Hourly Observations for January 2, 2016

Temp ( °F °C ) Dew Point ( °F °C ) Humidity (%) Winds ( mph kmh ) Pressure ( in mb ) Visibility ( mi km ) Precip ( " mm )
12:53 am 00:53 Clear 11 -11.7 3 -16.1 70 70 WSW 14 22 30.47 1032 10 16 0.00 0.00
1:53 am 01:53 Clear 8 -13.3 1 -17.2 73 73 WSW 9 15 30.46 1032 10 16 0.00 0.00
2:53 am 02:53 Clear 9 -12.8 1 -17.2 70 70 SW 9 15 30.47 1032 10 16 0.00 0.00
3:53 am 03:53 Clear 10 -12.2 2 -16.7 69 69 WSW 12 19 30.46 1032 10 16 0.00 0.00
4:53 am 04:53 Clear 6 -14.4 -1 -18.3 73 73 SW 12 19 30.47 1032 10 16 0.00 0.00
5:53 am 05:53 Clear 11 -11.7 2 -16.7 67 67 WSW 15 24 30.46 1031 10 16 0.00 0.00
6:53 am 06:53 Clear 6 -14.4 0 -17.8 76 76 WSW 9 15 30.47 1032 10 16 0.00 0.00
7:53 am 07:53 Clear 6 -14.4 0 -17.8 76 76 WSW 3 6 30.49 1033 10 16 0.00 0.00
8:53 am 08:53 Sunny 9 -12.8 1 -17.2 70 70 WSW 6 9 30.49 1032 10 16 0.00 0.00
9:53 am 09:53 Sunny 12 -11.1 4 -15.6 70 70 WSW 8 13 30.48 1032 10 16 0.00 0.00
10:53 am 10:53 Sunny 13 -10.6 5 -15 70 70 WSW 10 17 30.50 1033 10 16 0.00 0.00
11:53 am 11:53 Sunny 17 -8.3 8 -13.3 68 68 W 8 13 30.46 1032 10 16 0.00 0.00
12:53 pm 12:53 Sunny 20 -6.7 10 -12.2 65 65 SW 12 19 30.44 1031 10 16 0.00 0.00
1:53 pm 13:53 Sunny 20 -6.7 9 -12.8 62 62 SW 7 11 30.45 1031 10 16 0.00 0.00
2:53 pm 14:53 Sunny 22 -5.6 12 -11.1 66 66 SW 8 13 30.43 1031 10 16 0.00 0.00
3:53 pm 15:53 Sunny 19 -7.2 12 -11.1 74 74 WSW 5 7 30.44 1031 10 16 0.00 0.00
4:53 pm 16:53 Clear 16 -8.9 7 -13.9 67 67 SW 8 13 30.45 1031 10 16 0.00 0.00
5:53 pm 17:53 Clear 20 -6.7 9 -12.8 62 62 SW 8 13 30.42 1030 10 16 0.00 0.00
6:53 pm 18:53 Clear 20 -6.7 8 -13.3 60 60 Calm 30.43 1031 10 16 0.00 0.00
7:53 pm 19:53 Clear 16 -8.9 6 -14.4 65 65 SW 5 7 30.45 1031 10 16 0.00 0.00
8:53 pm 20:53 Clear 14 -10 5 -15 67 67 SW 8 13 30.45 1031 10 16 0.00 0.00
9:53 pm 21:53 Clear 16 -8.9 4 -15.6 59 59 SW 8 13 30.43 1031 10 16 0.00 0.00
10:53 pm 22:53 Clear 14 -10 4 -15.6 64 64 SW 9 15 30.43 1031 10 16 0.00 0.00
11:53 pm 23:53 Clear 12 -11.1 2 -16.7 64 64 SSW 12 19 30.43 1030 10 16 0.00 0.00

Powered by AerisWeather